EHI
0 0 0 0 0 0 0 0 0 0 0 0 0 0 0 0 0 0 0 0 0 0 0 0 0 0 0 0 0 0 0 0 0 0 0 0 0 0 0 0 0 0 0
0 0 0 0 0 0 0 0 0 0 0 0 0 0 0 0 0 0 0 0 0 0 0 0 0 0 0 0 0 0 0 0 0 0 0 0 0 0 0 0 0 0 0
0 0 0 0 0 0 0 0 0 0 0 0 0 0 0 0 0 0 0 0 0 0 0 0 0 0 0 0 0 0 0 0 0 0 0 0 0 0 0 0 0 0 0
0 0 0 0 0 0 0 0 0 0 0 0 0 0 0 0 0 0 0 0 0 0 0 0 0 0 0 0 0 0 0 0 0 0 0 0 0 0 0 0 0 0 0
0 0 0 0 0 0 0 0 0 0 0 0 0 0 0 0 0 0 0 0 0 0 0 0 0 0 0 0 0 0 0 0 0 0 0 0 0 0 0 0 0 0 0
0 0 0 0 0 0 0 0 0 0 0 0 0 0 0 0 0 0 0 0 0 0 0 0 0 0 0 0 0 0 0 0 0 0 0 0 0 0 0 0 0 0 0
0 0 0 0 0 0 0 0 0 0 0 0 0 0 0 0 0 0 0 0 0 0 0 0 0 0 0 0 0 0 0 0 0 0 0 0 0 0 0 0 0 0 0
0 0 0 0 0 0 0 0 0 0 0 0 0 0 0 0 0 0 0 0 0 0 0 0 0 0 0 0 0 0 0 0 0 0 0 0 0 0 0 0 0 0 0
0 0 0 0 0 0 0 0 0 0 0 0 0 0 0 0 0 0 0 0 0 0 0 0 0 0 0 0 0 0 0 0 0 0 0 0 0 0 0 0 0 0 0
0 0 0 0 0 0 0 0 0 0 0 0 0 0 0 0 0 0 0 0 0 0 0 0 0 0 0 0 0 0 0 0 0 0 0 0 0 0 0 0 0 0 0
0 0 0 0 0 0 0 0 0 0 0 0 0 0 0 0 0 0 0 0 0 0 0 0 0 0 0 0 0 0 0 0 0 0 0 0 0 0 0 0 0 0 0
0 0 0 0 0 0 0 0 0 0 0 0 0 0 0 0 0 0 0 0 0 0 0 0 0 0 0 0 0 0 0 0 0 0 0 0 0 0 0 0 0 0 0
0 0 0 0 0 0 0 0 0 0 0 0 0 0 0 0 0 0 0 0 0 0 0 0 0 0 0 0 0 0 0 0 0 0 0 0 0 0 0 0 0 0 0
0 0 0 0 0 0 0 0 0 0 0 0 0 0 0 0 0 0 0 0 0 0 0 0 0 0 0 0 0 0 0 0 0 0 0 0 0 0 0 0 0 0 0
0 0 0 0 0 0 0 0 0 0 0 0 0 0 0 0 0 0 0 0 0 0 0 0 0 0 0 0 0 0 0 0 0 0 0 0 0 0 0 0 0 0 0
0 0 0 0 0 0 0 0 0 0 0 0 0 0 0 0 0 0 0 0 0 0 0 0 0 0 0 0 0 0 0 0 0 0 0 0 0 0 0 0 0 0 0
0 0 0 0 0 0 0 0 0 0 0 0 0 0 0 0 0 0 0 0 0 0 0 0 0 0 0 0 0 0 0 0 0 0 0 0 0 0 0 0 0 0 0
0 0 0 0 0 0 0 0 0 0 0 0 0 0 0 0 0 0 0 0 0 0 0 0 0 0 0 0 0 0 0 0 0 0 0 0 0 0 0 0 0 0 0
0 0 0 0 0 0 0 0 0 0 0 0 0 0 0 0 0 0 0 0 0 0 0 0 0 0 0 0 0 0 0 0 0 0 0 0 0 0 0 0 0 0 0
0 0 0 0 0 0 0 0 0 0 0 0 0 0 0 0 0 0 0 0 0 0 0 0 0 0 0 0 0 0 0 0 0 0 0 0 0 0 0 0 0 0 0
0 0 0 0 0 0 0 0 0 0 0 0 0 0 0 0 0 0 0 0 0 0 0 0 0 0 0 0 0 0 0 0 0 0 0 0 0 0 0 0 0 0 0
0 0 0 0 0 0 0 0 0 0 0 0 0 0 0 0 0 0 0 0 0 0 0 0 0 0 0 0 0 0 0 0 0 0 0 0 0 0 0 0 0 0 0
0 0 0 0 0 0 0 0 0 0 0 0 0 0 0 0 0 0 0 0 0 0 0 0 0 0 0 0 0 0 0 0 0 0 0 0 0 0 0 0 0 0 0
0 0 0 0 0 0 0 0 0 0 0 0 0 0 0 0 0 0 0 0 0 0 0 0 0 0 0 0 0 0 0 0 0 0 0 0 0 0 0 0 0 0 0
0 0 0 0 0 0 0 0 0 0 0 0 0 0 0 0 0 0 0 0 0 0 0 0 0 0 0 0 0 0 0 0 0 0 0 0 0 0 0 0 0 0 0
0 0 0 0 0 0 0 0 0 0 0 0 0 0 0 0 0 0 0 0 0 0 0 0 0 0 0 0 0 0 0 0 0 0 0 0 0 0 0 0 0 0 0
Wind_Speed
3 4 4 3 3 3 3 3 3 3 3 4 4 4 4 4 4 4 4 4 5 4 4 5 5 4 3 3 3 4 4 4 6 4 3 3 5 6 5 5 5 6 5
3 3 4 3 3 3 3 3 3 3 3 4 4 4 4 4 4 5 5 5 5 5 5 5 5 4 5 4 4 4 4 5 5 6 4 4 6 6 6 6 5 5 6
3 3 3 4 4 3 3 3 3 3 3 3 3 4 4 4 4 5 5 5 5 6 6 6 6 6 6 4 5 4 4 4 5 5 5 4 4 4 5 5 6 6 6
3 3 4 4 4 3 3 3 3 3 3 3 4 4 4 4 4 4 5 5 5 5 5 6 6 7 7 6 5 5 5 5 5 5 5 4 4 4 5 5 5 5 5
3 3 3 3 3 3 3 3 3 3 3 3 3 3 4 4 4 4 4 5 5 5 6 6 7 7 7 7 5 6 6 5 5 5 5 4 5 4 5 4 5 5 6
3 3 3 3 3 3 3 3 3 3 3 3 3 4 4 3 4 6 5 5 5 6 6 6 6 6 7 9 10 10 9 8 7 6 6 6 7 6 5 5 5 5 5
2 3 3 3 3 3 3 3 3 3 3 3 3 4 5 4 5 6 6 5 5 6 6 6 5 5 7 7 8 10 10 11 11 9 9 8 8 7 6 6 6 6 6
2 2 2 3 3 3 3 3 3 2 3 3 3 4 4 4 5 6 6 6 5 6 6 7 7 7 7 7 7 7 8 8 9 8 9 9 8 6 6 7 7 6 5
2 2 3 3 3 3 3 3 3 3 3 3 3 3 4 4 5 6 5 4 4 6 6 6 7 7 8 8 7 7 8 7 7 9 10 9 9 9 7 4 4 5 5
2 2 2 3 3 3 3 3 2 3 3 2 3 3 4 4 3 5 5 3 4 4 5 5 7 8 8 8 7 7 8 7 5 6 7 7 7 7 8 7 5 5 4
2 2 2 2 2 3 2 2 2 2 2 2 3 3 3 3 4 4 5 4 4 4 4 4 4 7 8 9 9 7 8 6 5 6 5 5 4 4 5 5 5 5 5
2 1 1 1 1 1 2 2 2 2 2 2 2 2 2 2 3 4 5 5 4 4 4 4 4 7 8 8 7 7 7 6 4 4 4 4 3 3 3 3 4 4 4
1 1 1 1 1 1 1 1 1 1 1 1 1 2 2 2 2 3 4 5 5 4 4 5 6 7 6 5 6 6 5 4 3 3 4 4 3 3 2 2 2 2 3
2 1 1 1 1 1 0 1 1 1 2 2 2 2 2 2 2 2 2 2 3 3 3 4 5 4 4 4 4 3 3 3 3 4 3 3 2 2 2 2 2 2 2
1 1 0 0 0 0 0 1 1 2 2 3 2 2 2 3 3 4 3 3 3 3 3 2 2 2 2 2 2 2 2 2 3 2 3 2 2 2 2 2 2 2 2
1 1 0 0 0 0 0 1 1 2 3 4 4 4 4 4 5 5 5 4 4 4 3 2 2 2 2 3 3 3 3 3 3 2 2 2 3 3 2 2 2 2 3
1 1 1 1 1 1 1 1 1 2 2 3 4 4 4 4 4 4 4 4 4 3 2 2 2 2 3 3 3 3 3 3 2 2 2 2 2 2 2 2 2 2 2
1 1 1 1 1 1 1 1 1 2 2 2 2 3 4 4 4 4 3 3 2 2 2 2 2 3 3 3 3 3 3 3 2 2 2 2 2 2 2 3 3 3 3
1 1 1 1 1 1 1 1 1 2 2 3 2 2 2 3 3 3 3 2 2 2 2 2 2 3 3 3 3 3 3 3 3 2 2 2 2 2 2 3 3 3 3
0 0 1 1 1 1 1 1 2 2 2 2 3 2 2 2 2 2 2 2 2 2 2 3 3 3 3 3 3 3 3 3 3 2 2 2 2 2 3 3 3 3 3
0 1 1 1 1 1 1 2 2 2 2 3 3 3 4 3 3 3 2 2 2 2 2 3 3 3 3 2 3 3 3 3 3 3 2 2 2 2 2 3 3 3 2
0 1 1 1 1 1 2 2 2 2 3 3 3 3 4 3 2 2 2 2 2 2 2 2 2 3 3 3 3 3 3 3 3 3 3 3 2 2 2 2 2 2 2
0 0 1 1 1 2 2 2 2 2 2 2 2 2 2 2 2 2 2 2 2 2 2 2 3 3 3 3 3 3 3 4 3 3 3 3 3 3 3 3 3 3 3
1 1 1 1 1 2 2 2 2 2 2 2 2 2 2 2 2 2 2 2 2 2 2 2 3 4 4 4 3 3 3 4 4 4 4 4 4 3 3 2 3 3 3
1 1 1 1 2 2 2 2 2 2 2 2 2 2 2 2 2 2 2 2 2 3 3 3 3 3 4 5 5 4 5 6 6 4 4 3 3 3 3 3 3 3 2
1 1 1 2 2 2 2 2 2 2 2 2 2 2 2 2 2 2 2 2 2 3 3 3 4 4 5 4 5 5 6 7 6 6 4 3 3 3 2 2 3 3 2
Wind_Direction
218 209 202 202 203 202 203 203 199 198 197 197 191 191 191 195 196 200 203 205 211 213 217 223 229 233 231 229 229 232 239 248 256 265 264 261 255 257 257 260 260 257 256
220 216 205 198 195 198 204 205 195 194 196 198 192 190 192 198 203 203 204 207 215 219 220 224 231 233 234 235 234 236 240 246 255 264 264 260 262 260 261 262 263 262 260
211 205 199 194 194 200 205 201 192 190 192 193 193 197 202 204 211 215 213 212 218 225 226 227 229 231 233 235 237 241 243 248 253 257 264 267 270 262 265 265 263 262 263
207 200 202 200 197 200 200 195 191 187 189 192 196 202 208 212 213 216 220 221 225 231 234 234 233 233 235 235 238 241 243 244 245 251 260 265 266 267 263 262 265 262 266
209 207 210 205 195 194 189 190 189 192 198 200 203 208 211 215 215 219 223 228 231 235 240 241 240 241 246 244 243 239 238 241 243 248 255 260 258 258 257 260 266 273 272
210 212 211 204 199 198 190 188 190 197 203 207 211 215 217 219 219 230 235 234 236 239 245 249 251 246 245 247 248 246 242 242 242 247 254 254 258 259 258 258 265 272 274
209 210 204 200 193 197 190 186 195 199 203 212 216 221 227 225 223 232 239 242 238 242 247 249 250 248 248 245 247 247 246 247 247 249 252 255 259 255 254 256 254 262 269
199 204 203 201 198 198 196 197 205 209 211 216 221 230 237 235 230 234 240 242 243 245 246 246 247 247 244 248 249 248 249 248 248 247 252 257 259 258 250 253 261 268 280
203 210 213 209 201 200 206 212 210 211 216 221 225 234 243 246 237 238 242 243 244 250 252 252 252 252 252 254 252 252 255 254 251 252 258 262 261 257 250 250 250 255 268
216 222 218 213 208 211 212 212 214 212 217 220 232 239 246 253 251 247 249 244 248 255 258 256 255 259 261 256 253 250 252 255 255 255 254 254 255 246 236 237 240 247 263
203 203 210 215 217 219 215 208 206 206 209 221 239 248 249 251 246 247 259 254 251 260 263 266 265 270 270 262 259 254 257 264 257 253 252 251 252 248 241 244 246 245 250
167 172 189 210 206 208 204 208 206 199 211 227 246 267 266 259 255 252 265 272 274 266 266 269 273 277 278 270 261 261 263 264 257 250 246 248 252 252 251 252 259 262 267
154 163 173 180 182 197 203 203 214 217 222 238 243 258 277 280 271 269 270 274 281 279 274 279 282 281 279 268 263 264 259 252 245 248 248 253 257 256 258 260 266 277 297
161 164 164 174 157 153 189 212 227 233 235 243 249 257 267 272 273 275 274 277 280 282 283 284 284 281 279 281 278 267 261 256 253 254 260 268 268 253 246 244 250 253 275
162 167 189 236 229 256 295 291 266 268 268 258 259 259 264 268 280 294 290 284 285 281 290 284 285 287 283 279 275 271 269 267 264 267 263 265 263 258 258 256 252 250 255
168 186 213 243 286 295 290 327 332 283 296 292 285 279 281 280 286 287 294 300 298 289 286 272 275 281 283 285 283 281 276 270 269 272 266 258 254 252 253 252 248 247 252
185 196 214 236 244 253 263 269 301 323 300 290 289 290 287 291 291 287 291 299 294 285 271 269 277 280 283 284 283 283 281 281 276 265 263 261 258 255 246 240 238 247 255
175 193 217 228 245 249 258 267 274 285 301 308 308 302 299 293 289 285 290 298 282 277 280 283 288 289 288 286 284 287 290 286 275 269 267 261 254 254 250 241 234 238 250
177 199 221 238 260 264 265 270 270 273 281 292 302 307 312 302 292 285 284 279 277 280 283 288 289 290 292 290 290 291 291 289 289 282 270 263 255 252 254 252 247 241 249
183 212 268 245 246 254 257 257 263 269 275 280 287 297 306 301 292 293 287 282 276 279 281 280 285 288 290 290 290 290 289 288 288 281 277 271 263 259 258 258 251 244 248
180 191 248 263 253 254 258 262 267 270 274 281 287 293 295 288 284 285 285 282 279 279 282 284 284 284 285 287 286 284 284 284 284 283 282 279 270 264 265 264 261 255 253
235 235 250 268 273 270 274 272 269 269 272 281 290 291 290 288 284 284 287 292 294 294 290 283 280 279 278 277 277 277 277 280 282 283 281 275 265 260 263 262 260 260 251
295 286 297 293 287 279 283 277 274 273 276 280 284 282 279 281 285 289 292 296 298 296 291 284 280 280 281 278 274 268 267 270 274 275 274 271 267 264 263 261 258 260 257
324 307 295 292 289 282 284 285 282 278 278 282 283 278 276 278 282 288 294 297 298 298 296 290 281 279 282 282 277 273 268 269 272 263 259 257 261 265 262 257 259 258 257
324 302 290 285 282 285 289 289 286 285 283 283 281 280 283 286 288 293 296 296 297 295 296 292 282 278 276 277 276 275 274 274 271 266 259 254 255 259 258 257 255 255 250
331 316 307 300 293 293 292 290 291 294 289 287 286 285 284 284 285 288 289 287 293 295 293 289 284 284 284 281 276 275 277 275 273 271 268 256 252 253 253 254 254 251 240